www.pogodaiklimat.ru

Погода и климат >> Архив погоды >> Бразилия >> Парана >> Планарту


ПОГОДА в Планарту

  • Прогноз погоды в Планарту
  • Монитор погоды в Планарту

АРХИВ ПОГОДЫ в Планарту

Время (UTC), дата Ветер
(напр.,м/с)
 
Видим.   Явления Облачность Т
(С)
Тd
(С)
f
(%)
Тe
(С)
Тes
(С)
Комфортность P
(гПа)
Po
(гПа)
Тmin
(С)
Tmax
(С)
R
(мм)
R24
(мм)
S
(см)
07 13.09 штиль 0 н/о н/о +14.5 +15 +15 1017.9 970.8
08 13.09 штиль 0 н/о н/о +13.7 +14 +14 1018.5 971.2
09 13.09 штиль 0 н/о н/о +14.5 +15 +15 1018.5 971.3
10 13.09 штиль 0 н/о н/о +14.7 +15 +15 1019.0 971.8
11 13.09 штиль 0 н/о н/о +16.1 +16 +16 1019.6 972.6
12 13.09 штиль 0
{3}
н/о н/о +18.2 +18 +18 1019.3 972.7
13 13.09 В 1
{4}
н/о н/о +20.5 +17.8 85 +25 +25 комфорт 1019.0 972.7 0.2
14 13.09 СВ 1
{4}
н/о н/о +22.7 -24.8 3 +20 +20 1018.4 972.5
15 13.09 штиль 0
{3}
н/о н/о +23.8 -24.1 3 +20 +20 1017.5 971.8
16 13.09 штиль 0
{3}
н/о н/о +25.5 -22.9 3 +22 +22 комфорт 1016.2 970.8
17 13.09 штиль 0
{2}
н/о н/о +26.9 -22.0 3 +23 +23 комфорт 1015.0 969.9
18 13.09 штиль 0
{1}
н/о н/о +27.4 -21.7 3 +23 +23 комфорт 1013.9 968.9
19 13.09 штиль 0
{2}
н/о н/о +27.0 -21.9 3 +23 +23 комфорт 1013.6 968.6
20 13.09 штиль 0 н/о н/о +26.8 -22.1 3 +23 +23 комфорт 1013.6 968.5
21 13.09 штиль 0 н/о н/о +24.9 -23.3 3 +21 +21 комфорт 1014.2 968.8
22 13.09 штиль 0 н/о н/о +23.3 -24.4 3 +20 +20 1014.8 969.2
23 13.09 штиль 0 н/о н/о +21.1 -25.9 3 +19 +19 1015.4 969.4
00 14.09 штиль 0
{2}
н/о н/о +19.5 +19 +19 1016.0 969.7
01 14.09 штиль 0 н/о н/о +19.0 +18 +18 1016.3 969.9
02 14.09 штиль 0
{2}
н/о н/о +18.5 +18 +18 1016.0 969.6
03 14.09 В 1
{3}
н/о н/о +18.3 +20 +20 1016.1 969.6
04 14.09 штиль 0
{3}
н/о н/о +18.8 +18 +18 1015.2 968.9
05 14.09 В 1
{4}
н/о н/о +18.6 +19 +19 1015.1 968.7
06 14.09 В 1
{4}
н/о н/о +18.6 +20 +20 1014.6 968.3
07 14.09 штиль 0
{3}
н/о н/о +18.3 +18 +18 1014.7 968.3
08 14.09 штиль 0 н/о н/о +18.5 +18 +18 1014.8 968.4
09 14.09 В 1
{4}
н/о н/о +18.4 +20 +20 1015.2 968.8
10 14.09 В 1
{4}
н/о н/о +18.6 +19 +19 1015.7 969.3
11 14.09 В 1
{4}
н/о н/о +19.7 +20 +20 1015.9 969.7
12 14.09 В 1
{4}
н/о н/о +20.9 +20.9 100 +27 +27 душно 1015.7 969.7
13 14.09 штиль 0
{4}
н/о н/о +23.8 -24.1 3 +20 +20 1015.3 969.7
14 14.09 штиль 0
{3}
н/о н/о +26.5 -22.2 3 +22 +22 комфорт 1014.8 969.6
15 14.09 штиль 0
{2}
н/о н/о +28.2 -21.1 3 +24 +24 комфорт 1013.7 968.8
16 14.09 штиль 0 н/о н/о +29.2 -20.5 3 +25 +25 комфорт 1012.6 967.9
17 14.09 штиль 0
{2}
н/о н/о +29.7 -20.1 3 +25 +25 комфорт 1011.3 966.8
18 14.09 штиль 0 н/о н/о +29.9 -20.0 3 +25 +25 комфорт 1010.6 966.1
19 14.09 штиль 0 н/о н/о +30.5 -19.6 3 +26 +26 жарко 1010.0 965.6
20 14.09 штиль 0 н/о н/о +30.3 -19.7 3 +26 +26 жарко 1010.1 965.7
21 14.09 штиль 0 н/о н/о +27.6 -21.5 3 +23 +23 комфорт 1010.5 965.7
22 14.09 штиль 0 н/о н/о +25.5 -22.9 3 +22 +22 комфорт 1010.8 965.7
23 14.09 штиль 0 н/о н/о +24.5 -23.6 3 +21 +21 комфорт 1011.4 966.1
00 15.09 штиль 0 н/о н/о +23.4 -15.7 6 +20 +20 1012.2 966.7
01 15.09 В 2
{3}
н/о н/о +24.1 -23.8 3 +21 +21 комфорт 1011.9 966.5
02 15.09 штиль 0
{3}
н/о н/о +24.0 -23.9 3 +21 +21 комфорт 1012.1 966.7
03 15.09 В 3
{3}
н/о н/о +23.7 -24.1 3 +20 +20 1012.1 966.6
04 15.09 В 1
{3}
н/о н/о +23.3 -24.4 3 +20 +20 1011.8 966.3
05 15.09 В 2
{4}
н/о н/о +23.1 -24.5 3 +20 +20 1011.2 965.7
06 15.09 В 2
{4}
н/о н/о +22.6 -24.9 3 +20 +20 1010.8 965.2
07 15.09 В 3
{4}
н/о н/о +22.2 -25.1 3 +19 +19 1010.8 965.2
08 15.09 штиль 0
{4}
н/о н/о +21.6 -25.6 3 +19 +19 1011.1 965.4
09 15.09 В 2
{4}
н/о н/о +21.0 -26.0 3 +20 +20 1011.6 965.8
10 15.09 В 3
{4}
н/о н/о +21.7 -25.5 3 +19 +19 1012.6 966.8
11 15.09 В 3
{4}
н/о н/о +23.4 -24.3 3 +20 +20 1012.8 967.3
12 15.09 штиль 0
{5}
н/о н/о +25.9 -22.7 3 +22 +22 комфорт 1012.9 967.7
13 15.09 В 2
{4}
н/о н/о +28.3 -21.1 3 +24 +24 комфорт 1011.9 967.1
14 15.09 СВ 2
{5}
н/о н/о +31.2 -19.1 3 +26 +26 жарко 1010.9 966.6
16 15.09 С 1
{4}
н/о н/о +36.0 -15.9 3 +31 +31 жарко 1008.2 964.7
17 15.09 С 3
{6}
н/о н/о +36.9 -15.3 3 +32 +32 жарко 1006.9 963.6
18 15.09 С 3
{6}
н/о н/о +37.7 -14.8 3 +33 +33 жарко 1006.1 962.9
19 15.09 С 3
{6}
н/о н/о +36.7 -15.5 3 +32 +32 жарко 1005.8 962.5
20 15.09 С 2
{5}
н/о н/о +35.7 -16.1 3 +31 +31 жарко 1006.0 962.5
21 15.09 штиль 0
{4}
н/о н/о +33.3 -17.7 3 +28 +28 жарко 1006.6 962.8
22 15.09 штиль 0 н/о н/о +30.7 -19.5 3 +26 +26 жарко 1007.3 963.1
23 15.09 штиль 0 н/о н/о +29.5 -20.2 3 +25 +25 комфорт 1008.1 963.7
00 16.09 В 1
{3}
н/о н/о +29.0 -20.6 3 +24 +24 комфорт 1008.4 963.9
01 16.09 штиль 0
{3}
н/о н/о +28.8 -20.7 3 +24 +24 комфорт 1008.4 963.9
02 16.09 СВ 1
{4}
н/о н/о +29.0 -20.5 3 +24 +24 комфорт 1008.4 963.9
03 16.09 СВ 1
{4}
н/о н/о +28.1 -21.2 3 +24 +24 комфорт 1008.6 963.9
05 16.09 штиль 0
{3}
н/о н/о +25.9 -22.7 3 +22 +22 комфорт 1008.3 963.3
06 16.09 штиль 0
{2}
н/о н/о +25.8 -22.7 3 +22 +22 комфорт 1008.4 963.4
07 16.09 штиль 0 н/о н/о +25.8 -22.7 3 +22 +22 комфорт 1008.8 963.8
09 16.09 штиль 0
{2}
н/о н/о +24.2 -23.8 3 +21 +21 комфорт 1010.7 965.4
10 16.09 штиль 0 н/о н/о +24.8 -23.4 3 +21 +21 комфорт 1011.0 965.8
11 16.09 штиль 0
{3}
н/о н/о +27.6 -21.5 3 +23 +23 комфорт 1011.3 966.5
12 16.09 СВ 1
{3}
н/о н/о +30.0 -19.9 3 +25 +25 комфорт 1011.3 966.8
13 16.09 С 1
{3}
н/о н/о +32.8 -18.1 3 +28 +28 жарко 1010.8 966.7
14 16.09 С 3
{6}
н/о н/о +35.3 -16.4 3 +30 +30 жарко 1010.1 966.4
15 16.09 СЗ 5
{7}
н/о н/о +36.9 -15.3 3 +32 +32 жарко 1009.2 965.8
16 16.09 СЗ 4
{7}
н/о н/о +37.9 -14.7 3 +33 +33 жарко 1008.4 965.1
17 16.09 СЗ 4
{8}
н/о н/о +37.9 -14.7 3 +33 +33 жарко 1007.5 964.3
18 16.09 СЗ 3
{6}
н/о н/о +38.1 -14.5 3 +33 +33 жарко 1006.8 963.6
19 16.09 СЗ 3
{6}
н/о н/о +36.9 -15.3 3 +32 +32 жарко 1006.8 963.5
20 16.09 СЗ 1
{4}
н/о н/о +35.9 -16.0 3 +31 +31 жарко 1007.2 963.7
21 16.09 штиль 0
{2}
н/о н/о +34.0 -17.2 3 +29 +29 жарко 1007.3 963.5
22 16.09 штиль 0 н/о н/о +31.3 -19.0 3 +27 +27 жарко 1007.8 963.6
23 16.09 штиль 0 н/о н/о +31.1 -19.1 3 +26 +26 жарко 1008.2 964.0
00 17.09 штиль 0 н/о н/о +29.5 -20.2 3 +25 +25 комфорт 1008.8 964.3
01 17.09 штиль 0 н/о н/о +29.1 -20.5 3 +25 +25 комфорт 1009.0 964.5
02 17.09 штиль 0 н/о н/о +28.9 -20.6 3 +24 +24 комфорт 1009.3 964.7
03 17.09 штиль 0 н/о н/о +26.7 -22.1 3 +23 +23 комфорт 1009.7 964.8
04 17.09 штиль 0 н/о н/о +24.8 -23.4 3 +21 +21 комфорт 1009.6 964.4
05 17.09 штиль 0
{4}
н/о н/о +25.7 -22.8 3 +22 +22 комфорт 1009.3 964.3
06 17.09 штиль 0
{4}
н/о н/о +24.5 -23.6 3 +21 +21 комфорт 1009.2 964.0
07 17.09 штиль 0 н/о н/о +24.0 -23.9 3 +21 +21 комфорт 1008.9 963.6
08 17.09 штиль 0 н/о н/о +22.9 -24.7 3 +20 +20 1009.0 963.6
09 17.09 штиль 0 н/о н/о +22.2 -25.1 3 +19 +19 1008.6 963.1
10 17.09 штиль 0 н/о н/о +23.8 -24.1 3 +20 +20 1009.0 963.7
11 17.09 штиль 0 н/о н/о +26.0 -22.6 3 +22 +22 комфорт 1009.3 964.3
12 17.09 штиль 0 н/о н/о +27.9 -21.3 3 +24 +24 комфорт 1008.7 964.0
13 17.09 штиль 0
{1}
н/о н/о +28.5 -20.9 3 +24 +24 комфорт 1008.1 963.5
14 17.09 СЗ 1
{2}
н/о н/о +29.7 -20.1 3 +25 +25 комфорт 1007.4 963.0
15 17.09 штиль 0
{2}
н/о н/о +29.2 -20.4 3 +25 +25 комфорт 1006.8 962.4
16 17.09 штиль 0
{4}
н/о н/о +31.0 -19.2 3 +26 +26 жарко 1005.7 961.6
17 17.09 З 3
{5}
н/о н/о +31.5 -18.9 3 +27 +27 жарко 1004.8 960.8
18 17.09 З 4
{5}
н/о н/о +30.4 -19.6 3 +26 +26 жарко 1004.3 960.2
19 17.09 З 3
{6}
н/о н/о +29.6 -20.2 3 +25 +25 комфорт 1004.5 960.2
20 17.09 З 1
{5}
н/о н/о +27.6 -21.5 3 +23 +23 комфорт 1004.9 960.3
21 17.09 штиль 0
{4}
н/о н/о +26.1 -22.5 3 +22 +22 комфорт 1005.6 960.8
22 17.09 З 2
{4}
н/о н/о +24.2 -23.8 3 +21 +21 комфорт 1006.6 961.5
23 17.09 штиль 0
{4}
н/о н/о +22.3 +19 +19 1007.4 961.9
00 18.09 штиль 0
{3}
н/о н/о +21.6 +19 +19 1007.9 962.3
01 18.09 штиль 0 н/о н/о +20.8 +19 +19 1008.2 962.5
02 18.09 штиль 0
{4}
н/о н/о +20.0 +19 +19 1008.2 962.4
03 18.09 штиль 0 н/о н/о +19.4 +18 +18 1008.4 962.5
04 18.09 штиль 0 н/о н/о +19.0 +18 +18 1008.3 962.3
05 18.09 штиль 0 н/о н/о +18.6 +18 +18 1007.8 961.8
06 18.09 штиль 0 н/о н/о +18.4 +18 +18 1007.6 961.5
07 18.09 штиль 0
{2}
н/о н/о +18.4 +18 +18 1008.3 962.2
08 18.09 штиль 0 н/о н/о +18.5 +18 +18 1008.5 962.4
09 18.09 штиль 0 н/о н/о +18.2 +18 +18 1008.5 962.4
10 18.09 штиль 0 н/о н/о +18.2 +18 +18 1009.7 963.5
11 18.09 штиль 0 н/о н/о +18.3 +18 +18 1010.4 964.2
12 18.09 штиль 0 н/о н/о +18.4 +18 +18 1010.2 964.0
13 18.09 штиль 0 н/о н/о +18.5 +18 +18 1010.6 964.4
14 18.09 штиль 0 н/о н/о +19.2 +18 +18 1010.8 964.7
15 18.09 штиль 0 н/о н/о +19.6 +19 +19 1010.1 964.1
16 18.09 штиль 0 н/о н/о +19.4 +18 +18 1009.2 963.2
17 18.09 штиль 0
{1}
н/о н/о +20.7 +19 +19 1008.1 962.4
18 18.09 штиль 0
{2}
н/о н/о +21.0 +19 +19 1007.3 961.7
19 18.09 штиль 0 н/о н/о +20.9 +19 +19 1006.6 961.0
20 18.09 штиль 0
{2}
н/о н/о +21.3 +19 +19 1006.9 961.3
21 18.09 штиль 0 н/о н/о +20.7 +19 +19 1007.1 961.4
22 18.09 штиль 0 н/о н/о +19.0 +18 +18 1007.6 961.6
23 18.09 штиль 0 н/о н/о +18.8 +18 +18 1007.9 961.9
00 19.09 штиль 0 н/о н/о +17.7 +18 +18 1008.5 962.3
01 19.09 штиль 0 н/о н/о +17.6 +18 +18 1008.6 962.4
02 19.09 штиль 0 н/о н/о +17.1 +17 +17 1008.3 962.0
03 19.09 штиль 0 н/о н/о +16.9 +17 +17 1007.9 961.6
04 19.09 штиль 0 н/о н/о +16.4 +17 +17 1007.6 961.2
05 19.09 штиль 0 н/о н/о +16.6 +17 +17 1006.9 960.6
06 19.09 штиль 0 н/о н/о +17.2 +17 +17 1006.6 960.4
07 19.09 штиль 0 н/о н/о +17.1 +17 +17 1006.4 960.2
08 19.09 штиль 0 н/о н/о +16.6 +17 +17 1006.6 960.3
09 19.09 штиль 0
{1}
н/о н/о +16.5 +17 +17 1006.9 960.6
10 19.09 штиль 0
{1}
н/о н/о +17.1 +17 +17 1007.0 960.8
11 19.09 штиль 0
{3}
н/о н/о +17.1 +17 +17 1007.5 961.2 0.2
12 19.09 штиль 0
{3}
н/о н/о +19.6 +19 +19 1007.0 961.2
13 19.09 штиль 0
{3}
н/о н/о +22.8 +22.7 99 +31 +31 очень
душно
1006.0 960.7
14 19.09 СВ 1
{4}
н/о н/о +23.4 -24.3 3 +20 +20 1005.6 960.4
15 19.09 штиль 0
{4}
н/о н/о +23.3 -24.4 3 +20 +20 1004.9 959.7
16 19.09 штиль 0 н/о н/о +23.2 +19 +19 1003.5 958.4
17 19.09 штиль 0
{3}
н/о н/о +23.0 +22.6 98 +32 +32 очень
душно
1001.8 956.7
19 19.09 Ю 2
{5}
н/о н/о +21.2 +19 +19 1001.8 956.4
20 19.09 Ю 3
{9}
н/о н/о +20.6 +19 +19 1003.0 957.5 0.2
21 19.09 штиль 0
{7}
н/о н/о +19.8 +19 +19 1004.5 958.8 6
00 20.09 штиль 0
{2}
н/о н/о +19.8 +19 +19 1007.4 961.6 0.4
01 20.09 штиль 0
{2}
н/о н/о +19.4 +18 +18 1008.0 962.1 0.2
02 20.09 штиль 0 н/о н/о +19.4 +18 +18 1008.0 962.1
03 20.09 штиль 0 н/о н/о +19.5 +19 +19 1008.2 962.3
05 20.09 штиль 0 н/о н/о +19.1 +18 +18 1007.3 961.4

 

Местоположение метеостанции Планарту (Парана, Бразилия): широта -25.72 долгота -53.75 высота над уровнем моря 348 м.

В архиве по умолчанию представлена погода в Планарту за последнюю неделю. Архивные данные за месяц целиком и за предыдущие месяцы, начиная с января 2011 года, Вы можете получить, выбрав интересующий диапазон дат из раскрывающегося списка и нажав кнопку "Ввод!".


*Определитесь, кто Вы:
робот инопланетянин человек

Внимание! Время в таблицах - всемирное. Для получения местного времени необходимо прибавить поправку, которая равна -3 ч.

Смотрите также архив погоды в соседних городах и на ближайших метеорологических станциях:

Погода в Дионисио Серкейра (Парана, Бразилия) (63 км)
Погода в Дойс-Визиньюсе (Парана, Бразилия) (65 км)
Погода в Игуасу (Аргентина) (71 км)
Погода в Фос-ду-Игуасу (Парана, Бразилия) (74 км)
Погода в Фос-ду-Игуасу (Парана, Бразилия) (86 км)
Погода в Аэропорту Гуарани (Парагвай) (114 км)
Погода в Ново-Оризонти (Санта-Катарина, Бразилия) (118 км)
Погода в Сан-Мигель-ду-Осте (Санта-Катарина, Бразилия) (121 км)
Погода в Марешал-Кандиду-Рондоне (Парана, Бразилия) (135 км)
Погода в Кампина-да-Лагоа (Парана, Бразилия) (160 км)

Пояснения к столбцам:

Ветер - указаны скорость ветра в м/с - средняя за 10 мин, порывы в срок и между сроками (в фигурных скобках) и направление, откуда дует ветер: С - северный, СВ - северо-восточный, В - восточный, ЮВ - юго-восточный, Ю - южный, ЮЗ - юго-западный, З - западный, СЗ - северо-западный.
Видимость - горизонтальная дальность видимости в метрах или километрах. При видимости от 1 до 10 км при отсутствии осадков обычно наблюдается дымка, при ухудшении видимости до 1 км и менее - туман. В сухую погоду видимость может ухудшаться дымом, пылью или мглою.
Явления - указаны атмосферные явления, наблюдавшиеся в срок или в последний час перед сроком; фигурными скобками обозначены явления, наблюдавшиеся между сроками (за 1-3 часа до срока); квадратными скобками обозначены град или гололедные отложения с указанием их диаметра в мм.
Облачность - указаны через наклонную черту общая и нижняя облачность в баллах и высота нижней границы облаков в метрах; квадратными скобками обозначены формы облаков: Ci - перистые, Cs - перисто-слоистые, Cc - перисто-кучевые, Ac - высококучевые, As - высокослоистые, Sc - слоисто-кучевые, Ns - слоисто-дождевые, Cu - кучевые, Cb - кучево-дождевые. Подробнее классификацию облаков см. в Атласе облаков (PDF).
T - Температура воздуха - температура, измеренная на высоте 2 м над землей.
Td - Температура точки росы - температура, при понижении до которой содержащийся в воздухе водяной пар достигнет насыщения.
f - Относительная влажность воздуха - влажноcть воздуха, измеренная на высоте 2 м над землей.
Te - Эффективная температура - температура, которую ощущает одетый по сезону человек в тени. Характеристика душности погоды. При расчете учитывается влияние влажности воздуха и скорости ветра на теплоощущения человека.
Tes - Эффективная температура на солнце - температура, которую ощущает человек, с поправкой на солнечный нагрев. Характеристика знойности погоды. Зависит от высоты солнца над горизонтом, облачности и скорости ветра. Ночью, в пасмурную погоду, а также при ветре 12 м/с и более поправка равна нулю.
P - Атмосферное давление - приведенное к уровню моря атмосферное давление.
Po - Атмосферное давление - измеренное на уровне метеостанции атмосферное давление.
Tmin - Минимальная температура - минимум температуры воздуха на высоте 2 м над землей.
Tmax - Максимальная температура - максимум температуры воздуха на высоте 2 м над землей.
R - Количество осадков - Количество выпавших осадков за период времени, мм. При наведении курсора мыши на число - период времени, за который выпало указанное количество осадков.
R24 - Количество осадков - Количество выпавших осадков за 24 часа, мм.
S - Снежный покров - Высота снежного покрова, см. При наведении курсора мыши на число - состояние снежного покрова и степень покрытия местности в баллах.